Location: Newark
(27.9675°N, 86.8869°E)
Time: 15:27:53
(UTC+00:00)

Altair - Pass Details

Date: 29 October 2019
Orbit: 1502 x 1682 km, 47.2° (Epoch: 20 November)

Event Time Altitude Azimuth Distance (km) Brightness Sun altitude
Rises 09:00:24 0° 312° (NW) 4,812 10.2 29.2°
Reaches altitude 10° 09:03:32 10° 316° (NW) 3,849 9.8 28.6°
Maximum altitude 09:13:22 66° 38° (NE) 1,783 8.0 26.8°
Drops below altitude 10° 09:23:25 10° 119° (ESE) 3,935 9.5 25.0°
Sets 09:26:39 0° 122° (ESE) 4,924 9.9 24.4°
